SCP
0 0 0 0 0 0 0 0 0 0 0 0 0 0 0 0 0 0 0 0 0 0 0 0 0 0 0 0 0 0 0 0 0 0 0 0 0 0 0 0 0 0 0
0 0 0 0 0 0 0 0 0 0 0 0 0 0 0 0 0 0 0 0 0 0 0 0 0 0 0 0 0 0 0 0 0 0 0 0 0 0 0 0 0 0 0
0 0 0 0 0 0 0 0 0 0 0 0 0 0 0 0 0 0 0 0 0 0 0 0 0 0 0 0 0 0 0 0 0 0 0 1 0 0 0 0 0 0 0
0 0 0 0 0 0 0 0 0 0 0 0 0 0 0 0 0 0 0 0 0 0 0 0 0 0 0 0 0 0 0 0 0 0 0 1 1 1 1 0 0 0 0
0 0 0 0 0 0 0 0 0 0 0 0 0 0 0 0 0 0 0 0 0 0 0 0 0 0 0 0 0 0 0 0 1 1 1 1 1 1 1 1 1 1 1
0 0 0 0 0 0 0 0 0 0 0 0 0 0 0 0 0 0 0 0 0 0 0 0 0 0 0 0 0 0 0 0 1 1 1 1 1 1 1 1 1 1 1
0 0 0 0 0 0 0 0 0 0 0 0 0 0 0 0 0 0 0 0 0 0 0 0 0 0 0 0 0 0 0 0 0 1 1 1 1 1 1 1 1 1 1
0 0 0 0 0 0 0 0 0 0 0 0 0 0 0 0 0 0 0 0 0 0 0 0 0 0 0 0 0 0 0 0 0 0 1 1 1 1 1 1 1 1 1
0 0 0 0 0 0 0 0 0 0 0 0 0 0 0 0 0 0 0 0 0 0 0 0 0 0 0 0 0 0 0 0 0 1 1 1 1 1 1 1 1 1 1
0 0 0 0 0 0 0 0 0 0 0 0 0 0 0 0 0 0 0 0 0 0 0 0 0 0 0 0 0 0 0 0 1 1 1 1 1 1 1 1 1 1 1
0 0 0 0 0 0 0 0 0 0 0 0 0 0 0 0 0 0 0 0 0 0 0 0 0 0 0 0 0 0 0 0 1 1 1 1 1 1 1 1 1 1 1
0 0 0 0 0 0 0 0 0 0 0 0 0 0 0 0 0 0 0 0 0 0 0 0 0 0 0 0 0 0 0 0 0 0 1 1 1 1 1 1 1 1 1
0 0 0 0 0 0 0 0 0 0 0 0 0 0 0 0 0 0 0 0 0 0 0 0 0 0 0 0 0 0 0 0 0 0 0 0 0 1 1 1 1 1 1
0 0 0 0 0 0 0 0 0 0 0 0 0 0 0 0 0 0 0 0 0 0 0 0 0 0 0 0 0 0 0 0 0 0 0 0 0 0 0 0 0 1 1
0 0 0 0 0 0 0 0 0 0 0 0 0 0 0 0 0 0 0 0 0 0 0 0 0 0 0 0 0 0 0 0 0 0 0 0 0 0 0 0 0 0 0
0 0 0 0 0 0 0 0 0 0 0 0 0 0 0 0 0 0 0 0 0 0 0 0 0 0 0 0 0 0 0 0 0 0 0 0 0 0 0 0 0 0 0
0 0 0 0 0 0 0 0 0 0 0 0 0 0 0 0 0 0 0 0 0 0 0 0 0 0 0 0 0 0 0 0 0 0 0 0 0 0 0 0 0 0 0
0 0 0 0 0 0 0 0 0 0 0 0 0 0 0 0 0 0 0 0 0 0 0 0 0 0 0 0 0 0 0 0 0 0 0 0 0 0 0 0 0 0 0
0 0 0 0 0 0 0 0 0 0 0 0 0 0 0 0 0 0 0 0 0 0 0 0 0 0 0 0 0 0 0 0 0 0 0 0 0 0 0 0 0 0 0
0 0 0 0 0 0 0 0 0 0 0 0 0 0 0 0 0 0 0 0 0 0 0 0 0 0 0 0 0 0 0 0 0 0 0 0 0 0 0 0 0 0 0
0 0 0 0 0 0 0 0 0 0 0 0 0 0 0 0 0 0 0 0 0 0 0 0 0 0 0 0 0 0 0 0 0 0 0 0 0 0 0 0 0 0 0
0 0 0 0 0 0 0 0 0 0 0 0 0 0 0 0 0 0 0 0 0 0 0 0 0 0 0 0 0 0 0 0 0 0 0 0 0 0 0 0 0 0 0
0 0 0 0 0 0 0 0 0 0 0 0 0 0 0 0 0 0 0 0 0 0 0 0 0 0 0 0 0 0 0 0 0 0 0 0 0 0 0 0 0 0 0
0 0 0 0 0 0 0 0 0 0 0 0 0 0 0 0 0 0 0 0 0 0 0 0 0 0 0 0 0 0 0 0 0 0 0 0 0 0 0 0 0 0 0
0 0 0 0 0 0 0 0 0 0 0 0 0 0 0 0 0 0 0 0 0 0 0 0 0 0 0 0 0 0 0 0 0 0 0 0 0 0 0 0 0 0 0
0 0 0 0 0 0 0 0 0 0 0 0 0 0 0 0 0 0 0 0 0 0 0 0 0 0 0 0 0 0 0 0 0 0 0 0 0 0 0 0 0 0 0
Wind_Speed
5 5 5 5 6 6 6 7 8 9 10 11 11 12 13 14 14 13 9 13 19 22 24 25 25 26 27 28 28 29 28 28 29 29 29 29 28 28 28 28 28 28 28
5 5 6 6 6 6 6 7 9 9 9 9 11 13 14 14 14 14 13 12 16 21 25 26 27 27 28 29 29 30 30 30 30 30 30 31 31 31 31 31 31 31 30
5 5 6 6 6 6 8 7 9 8 8 9 11 13 12 13 13 15 14 12 12 15 22 26 27 28 29 30 30 31 31 31 31 31 31 32 33 33 33 33 33 33 33
5 5 5 6 7 6 6 6 7 8 9 9 10 10 10 11 14 15 14 13 12 11 14 20 24 27 28 29 31 32 32 32 31 31 32 32 32 33 35 36 35 35 35
5 4 4 5 6 5 5 6 7 8 9 10 10 11 11 12 13 14 15 15 14 14 13 13 17 22 26 28 30 31 32 33 31 31 32 33 33 34 36 37 37 37 37
9 7 6 8 8 6 6 7 9 9 8 9 10 11 11 13 13 13 14 13 12 14 14 15 13 13 19 25 27 29 30 31 32 33 33 34 35 36 37 38 38 39 39
11 10 7 8 8 7 8 9 8 11 9 10 11 11 12 13 12 10 10 12 14 15 15 16 13 12 10 16 22 25 28 29 31 32 33 34 36 37 39 40 40 40 40
11 9 9 7 8 7 8 9 9 8 8 10 10 12 11 11 9 11 14 14 15 14 15 15 15 15 14 12 12 17 22 27 29 31 32 33 34 35 37 38 40 41 41
11 10 10 8 8 7 7 9 9 10 10 10 9 9 10 11 15 11 13 13 15 15 15 15 18 18 18 15 15 16 18 23 28 30 31 32 33 34 36 37 38 39 40
10 10 9 9 8 7 8 8 9 8 9 9 8 7 10 14 12 13 12 13 16 16 17 16 17 18 19 16 15 17 16 18 26 29 31 32 33 34 34 35 36 37 38
9 10 9 8 8 7 8 9 9 9 7 9 8 9 11 11 14 16 18 15 14 14 15 16 15 15 17 17 15 15 16 20 24 27 29 31 31 32 33 33 33 34 35
6 9 8 8 8 7 8 9 9 10 8 9 9 8 9 10 12 14 18 19 17 15 16 15 15 14 14 14 16 15 20 24 26 28 30 31 32 32 31 31 31 30 30
6 9 8 8 8 8 9 9 9 9 9 10 10 9 9 10 11 13 15 17 20 17 18 15 14 14 13 14 14 15 19 25 27 29 30 32 32 32 31 31 31 31 31
6 8 9 8 9 9 9 9 8 8 9 10 11 12 10 10 10 11 13 15 18 18 18 21 15 15 15 15 15 15 18 24 28 30 31 33 32 31 30 30 30 30 31
5 8 8 9 9 9 10 10 8 10 10 11 11 13 11 10 10 11 12 13 15 19 20 22 18 17 15 16 16 16 20 26 31 32 34 34 32 31 30 30 29 29 29
7 8 9 10 10 10 10 10 10 10 12 12 11 13 13 11 11 12 12 13 13 16 19 19 19 20 20 16 21 21 21 29 31 32 32 32 31 31 30 30 29 29 29
8 9 9 10 10 11 11 11 11 13 14 14 14 15 16 16 13 12 13 13 13 14 17 17 17 20 24 23 20 20 19 20 19 28 31 32 31 32 32 30 29 28 28
8 9 9 10 11 11 12 13 13 14 15 16 16 16 17 14 17 15 14 15 15 15 16 19 19 19 24 23 22 21 19 17 18 26 31 31 31 31 31 30 29 28 27
8 9 9 10 11 12 13 13 14 16 16 17 17 17 17 17 18 15 17 16 14 14 15 17 19 18 18 18 20 20 22 18 18 20 25 26 27 28 29 30 30 29 26
9 9 10 11 11 12 12 13 16 17 17 17 17 17 17 17 18 19 16 17 16 17 17 16 16 16 17 19 18 17 17 16 16 16 19 22 24 26 27 29 29 26 23
9 9 10 11 12 12 11 16 17 18 18 18 17 17 17 19 22 19 17 17 18 17 16 16 16 17 17 18 17 16 17 16 17 16 15 15 15 14 16 21 24 23 23
9 10 11 12 13 11 16 21 20 18 18 18 17 17 17 18 20 25 26 26 26 22 19 17 17 19 22 21 19 17 17 18 18 14 14 15 14 15 15 14 22 27 26
10 12 13 14 14 15 19 22 23 19 17 16 17 17 15 16 22 19 23 27 26 27 25 20 21 22 22 21 21 22 20 20 20 17 15 17 15 15 14 15 26 29 27
11 12 13 14 15 15 19 21 24 18 16 16 16 18 19 19 18 22 23 22 20 19 22 20 19 21 21 22 21 22 22 21 20 15 14 15 14 14 14 13 23 27 25
12 13 13 15 15 16 18 21 22 16 14 17 17 18 19 20 24 29 25 21 21 20 22 28 30 29 31 31 25 17 16 16 16 13 10 12 13 13 12 14 16 20 18
13 13 13 14 14 15 18 20 22 13 15 15 16 17 21 22 27 31 24 21 22 22 22 23 22 22 21 21 24 17 14 14 15 14 10 10 11 11 10 8 8 9 10
Wind_Direction
265 273 277 280 281 285 284 286 287 289 287 285 280 277 275 273 270 267 264 242 243 253 256 257 256 256 255 254 253 252 252 252 249 243 241 241 240 240 240 239 239 239 240
277 287 286 285 285 286 290 291 291 291 287 286 285 282 280 277 274 273 272 264 242 246 252 254 254 254 254 254 253 252 251 250 251 249 245 242 240 239 240 240 240 239 239
281 282 284 288 296 302 303 301 302 298 294 293 290 288 286 283 281 278 274 272 266 249 248 254 257 255 254 252 252 252 251 250 248 248 248 246 242 239 238 238 239 239 239
297 299 304 314 326 325 319 316 312 307 303 302 300 299 293 288 283 279 277 272 270 268 257 251 254 258 260 259 257 256 254 252 249 247 247 247 245 242 240 239 238 238 238
358 349 351 350 348 345 342 335 322 319 314 311 305 300 295 290 286 281 277 276 274 271 272 266 253 254 258 260 261 261 260 258 255 251 249 248 248 246 244 242 240 239 239
46 41 37 26 17 15 6 354 342 332 319 318 310 302 298 292 283 281 284 286 283 280 277 277 273 260 251 256 261 262 262 262 261 259 255 252 250 249 248 247 245 242 241
49 44 36 31 19 15 6 356 347 334 328 331 315 309 299 288 294 292 301 302 296 292 287 281 278 277 269 257 256 260 262 263 264 263 261 259 257 254 251 249 248 246 244
43 37 31 23 15 2 1 356 351 335 330 332 325 316 312 308 305 322 307 296 297 298 295 296 294 289 285 280 270 259 263 267 268 268 266 264 261 259 256 253 250 248 247
38 34 26 17 9 3 357 351 350 342 332 328 334 319 317 317 320 296 310 313 308 305 305 304 300 296 290 284 281 270 259 264 271 273 274 272 269 265 261 258 255 252 249
34 25 20 14 7 1 355 349 348 339 332 329 327 321 312 309 308 307 307 307 310 308 304 300 297 296 295 293 287 282 280 280 283 284 283 280 276 273 268 264 260 257 254
32 21 13 8 4 358 353 346 342 341 334 329 325 319 314 311 306 308 307 308 303 299 298 298 296 295 296 295 294 305 341 329 317 307 301 295 290 286 283 278 272 267 261
21 20 7 6 3 358 350 344 337 337 332 328 322 316 314 309 308 305 303 306 304 303 301 297 294 293 294 298 301 322 334 324 317 311 307 303 300 297 295 292 288 284 279
13 9 4 360 359 353 346 341 331 329 326 323 315 313 308 302 302 301 300 303 303 303 301 297 297 299 299 298 294 319 318 313 309 307 304 302 300 299 296 294 291 288 284
5 358 354 350 348 344 339 335 321 322 320 316 312 311 304 301 302 302 302 303 303 304 302 300 303 303 302 297 298 313 301 301 301 300 300 298 296 293 291 290 288 286 282
352 350 346 343 341 338 335 329 321 321 319 315 311 307 302 300 301 302 299 299 300 300 300 303 304 303 302 297 298 299 297 296 296 296 292 290 289 289 289 288 286 285 283
350 344 343 338 335 331 329 324 318 318 315 312 307 304 302 299 301 299 298 297 291 289 291 295 299 301 303 299 299 297 293 292 290 288 287 286 285 286 287 286 285 284 283
346 342 336 329 327 326 326 321 318 316 312 309 308 306 305 302 301 300 298 293 290 289 288 291 294 298 301 300 298 295 292 291 288 287 287 286 286 285 285 284 284 283 282
340 334 326 321 323 324 323 318 316 314 311 310 309 307 305 305 303 301 298 295 293 292 292 295 297 298 298 300 300 299 298 293 289 289 287 284 282 282 283 284 283 283 282
329 326 322 322 322 322 317 314 315 313 311 308 308 307 306 307 304 303 302 298 297 298 297 294 294 296 297 299 302 299 296 292 291 290 290 287 285 285 286 286 285 282 280
321 321 320 319 318 317 313 319 318 312 310 308 306 305 307 307 306 306 302 302 303 302 297 295 295 298 299 300 299 298 298 296 295 295 292 288 285 286 288 288 284 279 275
314 314 314 316 317 314 318 323 316 312 311 308 307 308 308 306 302 301 302 303 304 300 299 299 300 302 301 302 301 299 297 298 295 293 291 288 290 290 290 289 287 279 271
313 314 315 316 315 313 319 316 315 312 310 309 311 310 308 305 305 305 304 302 301 300 300 301 303 302 301 299 299 298 298 296 293 291 292 291 291 288 284 281 280 279 274
316 314 314 315 313 313 315 316 316 313 309 309 310 309 308 307 308 306 306 306 303 300 298 301 301 300 300 299 299 297 293 291 288 292 295 288 287 285 286 285 286 282 277
314 311 311 311 310 310 316 318 318 316 311 309 309 308 307 308 309 311 310 308 305 305 305 304 299 298 296 295 292 292 292 289 285 283 283 286 291 290 291 291 287 280 276
310 309 309 310 310 313 319 319 321 317 311 312 310 309 309 308 311 314 314 310 310 310 309 306 302 299 298 298 296 293 290 289 290 292 294 289 292 294 294 290 282 284 286
306 308 307 309 311 313 315 317 321 316 314 314 311 310 309 311 314 317 315 313 312 313 312 309 307 306 302 297 295 291 293 294 294 294 296 292 294 301 296 287 302 310 306